• In Österreich
  • Länderverzeichnis
  • Für 7 Tage
  • Wassertemperatur
  • Satellitenkarten
  • Wetterkarte
  • News
  • Widgets
  • user-avatar
    Anmelden

    Stündliche Wetter Enkamp

    Heute, 16 Juli, Montag

    Zeit Temperatur Niederschläge Wind Luftdruck Luftfeuchtigkeit
    00:00 +13°C° 0 mm 1 m/S 625 mmHg 65%
    01:00 +13°C° 0,3 mm 1 m/S 624 mmHg 68%
    02:00 +12°C° 0,3 mm 1 m/S 624 mmHg 72%
    03:00 +12°C° 0,3 mm 1 m/S 624 mmHg 76%
    04:00 +12°C° 1 mm 1 m/S 624 mmHg 80%
    05:00 +12°C° 1 mm 1 m/S 624 mmHg 84%
    06:00 +12°C° 1 mm 1 m/S 624 mmHg 88%
    07:00 +12°C° 4,1 mm 2 m/S 624 mmHg 88%
    08:00 +12°C° 4,1 mm 2 m/S 624 mmHg 88%
    09:00 +11°C° 4,1 mm 3 m/S 624 mmHg 88%
    10:00 +12°C° 2,3 mm 3 m/S 625 mmHg 84%
    11:00 +13°C° 2,3 mm 3 m/S 625 mmHg 81%
    12:00 +14°C° 2,3 mm 3 m/S 626 mmHg 77%
    13:00 +16°C° 0,2 mm 3 m/S 626 mmHg 72%
    14:00 +17°C° 0,2 mm 3 m/S 627 mmHg 67%
    15:00 +18°C° 0,2 mm 3 m/S 627 mmHg 62%
    16:00 +17°C° 0,1 mm 3 m/S 627 mmHg 64%
    17:00 +17°C° 0,1 mm 3 m/S 627 mmHg 66%
    18:00 +16°C° 0,1 mm 3 m/S 627 mmHg 68%
    19:00 +15°C° 0 mm 2 m/S 627 mmHg 74%
    20:00 +13°C° 0 mm 2 m/S 627 mmHg 80%
    21:00 +10°C° 0 mm 2 m/S 627 mmHg 85%
    22:00 +10°C° 0 mm 2 m/S 627 mmHg 85%
    23:00 +10°C° 0 mm 2 m/S 627 mmHg 85%

    Morgen, 17 Juli, Dienstag

    Zeit Temperatur Niederschläge Wind Luftdruck Luftfeuchtigkeit
    00:00 +9°C° 0 mm 2 m/S 627 mmHg 86%
    01:00 +9°C° 0 mm 2 m/S 627 mmHg 86%
    02:00 +9°C° 0 mm 2 m/S 626 mmHg 86%
    03:00 +9°C° 0 mm 2 m/S 626 mmHg 86%
    04:00 +9°C° 0 mm 2 m/S 627 mmHg 84%
    05:00 +10°C° 0 mm 2 m/S 627 mmHg 82%
    06:00 +11°C° 0 mm 1 m/S 627 mmHg 80%
    07:00 +14°C° 0 mm 1 m/S 628 mmHg 72%
    08:00 +16°C° 0 mm 1 m/S 629 mmHg 64%
    09:00 +19°C° 0 mm 1 m/S 630 mmHg 55%
    10:00 +19°C° 0 mm 2 m/S 630 mmHg 54%
    11:00 +20°C° 0 mm 2 m/S 630 mmHg 52%
    12:00 +20°C° 0 mm 2 m/S 630 mmHg 50%
    13:00 +20°C° 0 mm 2 m/S 630 mmHg 50%
    14:00 +21°C° 0 mm 2 m/S 630 mmHg 49%
    15:00 +21°C° 0 mm 2 m/S 629 mmHg 49%
    16:00 +20°C° 0 mm 2 m/S 629 mmHg 52%
    17:00 +19°C° 0 mm 2 m/S 629 mmHg 56%
    18:00 +20°C° 0 mm 1 m/S 628 mmHg 59%
    19:00 +18°C° 0 mm 1 m/S 628 mmHg 67%
    20:00 +15°C° 0 mm 1 m/S 627 mmHg 76%
    21:00 +13°C° 0 mm 1 m/S 627 mmHg 84%
    22:00 +12°C° 0 mm 1 m/S 626 mmHg 85%
    23:00 +12°C° 0 mm 1 m/S 626 mmHg 86%

    übermorgen, 18 Juli, Mittwoch

    Zeit Temperatur Niederschläge Wind Luftdruck Luftfeuchtigkeit
    00:00 +12°C° 0 mm 1 m/S 626 mmHg 86%
    01:00 +12°C° 0 mm 1 m/S 626 mmHg 85%
    02:00 +11°C° 0 mm 1 m/S 626 mmHg 83%
    03:00 +11°C° 0 mm 1 m/S 625 mmHg 82%
    04:00 +12°C° 0 mm 1 m/S 626 mmHg 78%
    05:00 +13°C° 0 mm 1 m/S 626 mmHg 74%
    06:00 +14°C° 0 mm 1 m/S 626 mmHg 70%
    07:00 +16°C° 0 mm 1 m/S 627 mmHg 62%
    08:00 +19°C° 0 mm 2 m/S 628 mmHg 54%
    09:00 +21°C° 0 mm 2 m/S 629 mmHg 46%
    10:00 +23°C° 0 mm 2 m/S 629 mmHg 43%
    11:00 +24°C° 0 mm 3 m/S 629 mmHg 40%
    12:00 +25°C° 0 mm 3 m/S 630 mmHg 36%
    13:00 +25°C° 0 mm 3 m/S 629 mmHg 37%
    14:00 +25°C° 0 mm 4 m/S 629 mmHg 37%
    15:00 +25°C° 0 mm 4 m/S 629 mmHg 37%
    16:00 +24°C° 0,2 mm 3 m/S 628 mmHg 44%
    17:00 +23°C° 0,2 mm 2 m/S 628 mmHg 50%
    18:00 +21°C° 0,2 mm 2 m/S 627 mmHg 57%
    19:00 +19°C° 0 mm 1 m/S 627 mmHg 62%
    20:00 +16°C° 0 mm 1 m/S 626 mmHg 67%
    21:00 +14°C° 0 mm 1 m/S 626 mmHg 72%
    22:00 +14°C° 0 mm 1 m/S 625 mmHg 71%
    23:00 +13°C° 0 mm 1 m/S 625 mmHg 71%

    19 Juli, Donnerstag

    Zeit Temperatur Niederschläge Wind Luftdruck Luftfeuchtigkeit
    00:00 +13°C° 0 mm 1 m/S 625 mmHg 70%
    01:00 +13°C° 0 mm 1 m/S 625 mmHg 68%
    02:00 +13°C° 0 mm 1 m/S 625 mmHg 65%
    03:00 +13°C° 0 mm 1 m/S 624 mmHg 62%
    04:00 +13°C° 0 mm 1 m/S 625 mmHg 62%
    05:00 +14°C° 0 mm 1 m/S 625 mmHg 61%
    06:00 +15°C° 0 mm 1 m/S 625 mmHg 60%
    07:00 +18°C° 0 mm 1 m/S 626 mmHg 54%
    08:00 +20°C° 0 mm 2 m/S 627 mmHg 48%
    09:00 +23°C° 0 mm 2 m/S 628 mmHg 42%
    10:00 +24°C° 0 mm 2 m/S 628 mmHg 40%
    11:00 +24°C° 0 mm 3 m/S 628 mmHg 38%
    12:00 +25°C° 0 mm 3 m/S 628 mmHg 37%
    13:00 +25°C° 0,2 mm 3 m/S 628 mmHg 39%
    14:00 +25°C° 0,2 mm 3 m/S 628 mmHg 41%
    15:00 +25°C° 0,2 mm 3 m/S 628 mmHg 43%
    16:00 +24°C° 0,5 mm 2 m/S 627 mmHg 49%
    17:00 +21°C° 0,5 mm 2 m/S 627 mmHg 56%
    18:00 +20°C° 0,5 mm 2 m/S 626 mmHg 62%
    19:00 +18°C° 0,3 mm 2 m/S 626 mmHg 69%
    20:00 +16°C° 0,3 mm 1 m/S 626 mmHg 76%
    21:00 +14°C° 0,3 mm 1 m/S 625 mmHg 83%
    22:00 +14°C° 0,2 mm 1 m/S 625 mmHg 84%
    23:00 +13°C° 0,2 mm 1 m/S 625 mmHg 86%

    20 Juli, Freitag

    Zeit Temperatur Niederschläge Wind Luftdruck Luftfeuchtigkeit
    00:00 +13°C° 0,2 mm 1 m/S 625 mmHg 87%
    01:00 +13°C° 0,4 mm 1 m/S 625 mmHg 88%
    02:00 +12°C° 0,4 mm 1 m/S 624 mmHg 89%
    03:00 +12°C° 0,4 mm 1 m/S 624 mmHg 91%
    04:00 +12°C° 0,6 mm 1 m/S 624 mmHg 90%
    05:00 +12°C° 0,6 mm 1 m/S 624 mmHg 90%
    06:00 +13°C° 0,6 mm 2 m/S 625 mmHg 90%
    07:00 +14°C° 0,2 mm 2 m/S 625 mmHg 83%
    08:00 +15°C° 0,2 mm 2 m/S 626 mmHg 77%
    09:00 +17°C° 0,2 mm 2 m/S 626 mmHg 70%
    10:00 +17°C° 0,7 mm 2 m/S 626 mmHg 69%
    11:00 +17°C° 0,7 mm 2 m/S 626 mmHg 68%
    12:00 +17°C° 0,7 mm 2 m/S 626 mmHg 67%
    13:00 +17°C° 1,3 mm 2 m/S 626 mmHg 68%
    14:00 +17°C° 1,3 mm 2 m/S 626 mmHg 69%
    15:00 +17°C° 1,3 mm 2 m/S 626 mmHg 70%
    16:00 +16°C° 1,1 mm 3 m/S 626 mmHg 73%
    17:00 +14°C° 1,1 mm 3 m/S 626 mmHg 77%
    18:00 +13°C° 1,1 mm 3 m/S 626 mmHg 80%
    19:00 +12°C° 0,2 mm 3 m/S 626 mmHg 82%
    20:00 +11°C° 0,2 mm 3 m/S 626 mmHg 85%
    21:00 +10°C° 0,2 mm 3 m/S 626 mmHg 87%
    22:00 +10°C° 0 mm 3 m/S 626 mmHg 87%
    23:00 +9°C° 0 mm 3 m/S 626 mmHg 88%

    21 Juli, Samstag

    Zeit Temperatur Niederschläge Wind Luftdruck Luftfeuchtigkeit
    00:00 +9°C° 0 mm 3 m/S 626 mmHg 88%
    01:00 +9°C° 0 mm 3 m/S 626 mmHg 87%
    02:00 +8°C° 0 mm 2 m/S 626 mmHg 87%
    03:00 +8°C° 0 mm 2 m/S 626 mmHg 87%
    04:00 +8°C° 0 mm 2 m/S 626 mmHg 85%
    05:00 +9°C° 0 mm 2 m/S 626 mmHg 84%
    06:00 +9°C° 0 mm 2 m/S 627 mmHg 82%
    07:00 +12°C° 0 mm 2 m/S 628 mmHg 73%
    08:00 +14°C° 0 mm 2 m/S 629 mmHg 63%
    09:00 +16°C° 0 mm 2 m/S 629 mmHg 53%
    10:00 +17°C° 0 mm 2 m/S 630 mmHg 48%
    11:00 +19°C° 0 mm 2 m/S 630 mmHg 44%
    12:00 +20°C° 0 mm 2 m/S 631 mmHg 39%
    13:00 +20°C° 0 mm 3 m/S 630 mmHg 40%
    14:00 +20°C° 0 mm 3 m/S 630 mmHg 41%
    15:00 +21°C° 0 mm 3 m/S 630 mmHg 42%
    16:00 +20°C° 0 mm 3 m/S 630 mmHg 48%
    17:00 +19°C° 0 mm 3 m/S 629 mmHg 54%
    18:00 +18°C° 0 mm 2 m/S 629 mmHg 60%
    19:00 +16°C° 0 mm 2 m/S 629 mmHg 69%
    20:00 +14°C° 0 mm 2 m/S 628 mmHg 78%
    21:00 +12°C° 0 mm 2 m/S 628 mmHg 87%
    22:00 +12°C° 0 mm 2 m/S 628 mmHg 88%
    23:00 +10°C° 0 mm 2 m/S 628 mmHg 90%
    Mehr zeigen